Hovedside
METAR-TAF:

METAR-TAF

Lufthavner :

Torsby, Sverige

breddegrad: 60-09-17N, lengdegrad: 12-59-40E, høyde over havet: 120 m

Gjeldene værobservasjon

Denne rapporten ble laget for 36 minutter siden, klokken 04:20 UTC
Vind 5 kt fra Vest-nordvest
Temperatur 8°C
Luftfuktighet 93%
Trykk 1003 hPa
Sikt 10 km eller mer
ingen skyer under 1500 m og ingen bygeskyer

METAR: ESST 210420Z 30005KT CAVOK 08/07 Q1003

Tid: 06:56 (04:56 UTC)


TAF: fraværende

Værobservasjoner og værvarsel for over 4000 flyplasser (METAR- og TAF-rapporter).

Tilgjengelige stasjoner er representert av de røde og gule prikkene på kartet.

Hold musepekeren over prikken for å se navnet på stasjonen.

Klikk så for å se værobservasjoner og -varsler.

For å forandre kartet kan du klikke på den grønne knappen med svart kryss for å zoome inn, på den grønne knappen med strek for å zoome ut, eller på de grønne pilene for å se tilstøtende kart.


METAR-TAF: